CW3175 Weather Reports


time (UTC)temp
F
wind
direction
speed
knots
gust
knots
rain 1hr
in
rain 24hr
in
rain mn
in
humidity
%
barometer
mb
20150529221332 82 214 2.6 11.3 0.00 0.25 0.25 58 1009.7
20150529215827 82 193 4.3 14.8 0.00 0.25 0.25 58 1010.0
20150529214327 80 248 5.2 16.5 0.00 0.25 0.25 61 1010.1
20150529212819 82 188 4.3 13.0 0.00 0.25 0.25 54 1010.1
20150529211317 82 187 3.5 13.0 0.00 0.25 0.25 54 1010.2
20150529205816 81 214 4.3 16.5 0.01 0.25 0.25 57 1010.3
20150529204317 82 186 2.6 13.0 0.01 0.25 0.25 63 1010.5
20150529202818 79 161 2.6 7.8 0.01 0.25 0.25 75 1010.7
20150529201318 80 215 5.2 10.4 0.01 0.25 0.25 69 1011.1
20150529195809 80 182 3.5 9.6 0.00 0.24 0.24 67 1011.1
20150529194307 77 198 5.2 11.3 0.00 0.24 0.24 78 1011.6
20150529192804 79 169 6.1 13.9 0.00 0.24 0.24 69 1011.8
20150529191305 79 169 5.2 12.2 0.00 0.24 0.24 70 1012.2
20150529185802 79 187 4.3 9.6 0.00 0.24 0.24 68 1012.6
20150529184302 79 152 4.3 12.2 0.00 0.24 0.24 69 1012.5
20150529182757 79 156 2.6 7.0 0.00 0.24 0.24 69 1012.7
20150529181257 77 170 2.6 7.0 0.02 0.24 0.24 69 1013.2
20150529175754 75 169 1.7 9.6 0.24 0.24 0.24 82 1013.4
20150529174254 74 213 0.9 5.2 0.24 0.24 0.24 90 1013.8
20150529172753 74 211 0.9 5.2 0.24 0.24 0.24 92 1014.0
20150529171247 73 267 1.7 12.2 0.22 0.22 0.22 87 1014.6
20150529165744 76 174 2.6 10.4 0.00 0.00 0.00 73 1014.1
20150529164245 79 188 7.8 22.6 0.00 0.00 0.00 65 1013.9
20150529162745 82 203 4.3 13.0 0.00 0.00 0.00 55 1013.7
20150529161244 82 178 3.5 12.2 0.00 0.00 0.00 58 1013.8
20150529155743 82 200 5.2 16.5 0.00 0.00 0.00 55 1014.0
20150529154240 81 174 6.1 12.2 0.00 0.00 0.00 57 1014.1
20150529152738 81 178 5.2 13.9 0.00 0.00 0.00 59 1014.2
20150529151239 81 188 5.2 13.0 0.00 0.00 0.00 58 1014.5
20150529145736 81 189 6.1 12.2 0.00 0.00 0.00 58 1014.6
20150529144237 80 175 5.2 14.8 0.00 0.00 0.00 60 1014.6
20150529142741 79 172 5.2 11.3 0.00 0.00 0.00 62 1014.9
20150529141229 79 180 2.6 9.6 0.00 0.00 0.00 64 1014.9
20150529135730 78 164 4.3 11.3 0.00 0.00 0.00 66 1014.9
20150529134225 77 177 4.3 10.4 0.00 0.00 0.00 68 1014.9
20150529132725 77 227 1.7 9.6 0.00 0.00 0.00 70 1014.7
20150529131223 76 223 1.7 7.8 0.00 0.00 0.00 73 1015.0
20150529125717 75 181 2.6 7.8 0.00 0.00 0.00 74 1014.7
20150529124218 74 202 2.6 10.4 0.00 0.00 0.00 77 1014.7
20150529122718 73 206 2.6 7.8 0.00 0.00 0.00 78 1014.8
20150529121218 73 179 1.7 8.7 0.00 0.00 0.00 78 1014.7
20150529115715 72 150 1.7 7.0 0.00 0.00 0.00 80 1014.4
20150529114213 71 161 0.9 7.8 0.00 0.00 0.00 80 1014.2
20150529112708 71 183 1.7 6.1 0.00 0.00 0.00 80 1014.3
20150529111206 71 192 1.7 7.0 0.00 0.00 0.00 80 1014.1
20150529105705 71 167 1.7 8.7 0.00 0.00 0.00 79 1014.0
20150529104203 71 159 1.7 7.8 0.00 0.00 0.00 79 1014.0
20150529102641 71 155 0.0 7.8 0.00 0.00 0.00 78 1014.2
20150529101141 71 150 0.9 6.1 0.00 0.00 0.00 78 1014.0
20150529095614 72 130 0.9 5.2 0.00 0.00 0.00 77 1014.0
20150529094115 72 182 0.9 7.8 0.00 0.00 0.00 76 1014.1
20150529092610 72 168 0.0 4.3 0.00 0.00 0.00 75 1014.4
20150529091106 72 181 0.9 5.2 0.00 0.00 0.00 73 1014.4
20150529085532 72 163 0.9 4.3 0.00 0.00 0.00 72 1014.5
20150529084030 72 176 0.9 4.3 0.00 0.00 0.00 70 1014.9
20150529082516 72 173 0.9 7.8 0.00 0.00 0.00 69 1014.9
20150529081017 71 165 0.9 4.3 0.00 0.00 0.00 68 1015.2
20150529075511 71 190 0.9 6.1 0.00 0.00 0.00 66 1015.0
20150529074008 72 192 3.5 7.0 0.00 0.00 0.00 66 1015.0
20150529072458 71 190 0.9 6.1 0.00 0.00 0.00 66 1015.0
20150529070954 71 181 0.9 6.1 0.00 0.00 0.00 66 1015.0
20150529065451 71 168 1.7 6.1 0.00 0.00 0.00 66 1015.2
20150529063951 70 160 0.9 6.1 0.00 0.00 0.00 66 1015.3
20150529062439 69 155 0.0 4.3 0.00 0.00 0.00 69 1015.4
20150529060935 68 150 0.9 3.5 0.00 0.00 0.00 70 1015.5
20150529055428 66 107 0.0 0.9 0.00 0.00 0.00 73 1015.6
20150529053900 66 106 0.0 0.0 0.00 0.00 0.00 72 1015.5
20150529052358 66 106 0.0 0.9 0.00 0.00 0.00 71 1015.3
20150529050844 67 105 0.0 3.5 0.00 0.00 0.00 70 1015.4
20150529045341 67 103 0.0 3.5 0.00 0.00 0.00 70 1015.3
20150529043834 66 130 0.0 3.5 0.00 0.00 0.00 72 1015.5
20150529042335 65 130 0.0 0.0 0.00 0.00 0.00 72 1015.6
20150529040807 65 130 0.0 5.2 0.00 0.00 0.00 71 1015.6
20150529035307 65 108 0.0 4.3 0.00 0.00 0.00 71 1015.6
20150529033755 65 116 0.0 1.7 0.00 0.00 0.00 71 1016.0
20150529032253 65 109 0.0 1.7 0.00 0.00 0.00 70 1016.2
20150529030753 65 109 0.0 1.7 0.00 0.00 0.00 70 1016.4
20150529025253 65 106 0.0 2.6 0.00 0.00 0.00 69 1016.6
20150529023739 65 113 0.0 1.7 0.00 0.00 0.00 69 1016.5
20150529022235 66 99 0.0 2.6 0.00 0.00 0.00 68 1016.5
20150529020725 66 117 0.0 0.9 0.00 0.00 0.00 68 1016.4
20150529015217 66 127 0.0 5.2 0.00 0.00 0.00 68 1016.6
20150529013701 67 87 0.9 5.2 0.00 0.00 0.00 66 1016.6
20150529012159 67 119 0.9 4.3 0.00 0.00 0.00 64 1016.8
20150529010646 68 95 0.0 4.3 0.00 0.00 0.00 62 1017.0
20150529005145 69 92 0.0 2.6 0.00 0.00 0.00 60 1017.1
20150529003645 69 103 0.0 3.5 0.00 0.00 0.00 59 1017.2
20150529002123 70 105 0.9 4.3 0.00 0.00 0.00 59 1017.4
20150529000618 70 94 1.7 5.2 0.00 0.00 0.00 57 1017.4
20150528235118 72 72 0.9 4.3 0.00 0.00 0.00 56 1017.4
20150528233613 73 71 0.9 6.1 0.00 0.00 0.00 54 1017.3
20150528232115 73 105 0.9 6.1 0.00 0.00 0.00 53 1017.4
20150528230615 74 44 1.7 6.1 0.00 0.00 0.00 51 1017.4
20150528225113 75 78 1.7 7.8 0.00 0.00 0.00 49 1017.4
20150528223604 76 55 1.7 7.8 0.00 0.00 0.00 47 1017.8